Torna al catalogo

CZ-6A DEB

AttivoPO
NORAD 61813·DEBRIS·🇨🇳 China

Lanciato Aug 6, 2024 da Taiyuan Satellite Launch Center

Loading…

Prossimi Passaggi (prossime 24 ore)

TLE

AggiornatoSource: Space-Track

Epoca: Sep 13, 2026, 00:29 UTC

1 61813U 24140ACD 26256.02019639  .00001941  00000-0  72104-3 0  9993
2 61813  89.1491 277.4321 0062332 290.7360  68.7163 14.30789458105536

Traccia CZ-6A DEB in tempo reale con AllMySat

Download on the App Store